Satellite: NOAA-17
Catalog number: 27453
Epoch time:      04337.42820557
Element set:     147
Inclination:       98.6850 deg
RA of node:        47.7253 deg
Eccentricity:    0.0010912
Arg of perigee:   265.6503 deg
Mean anomaly:      94.3404 deg
Mean motion:   14.23603391 rev/day
Decay rate:       2.27e-06 rev/day^2
Epoch rev:           12684
Checksum:              293

/EX
SB KEPS @ AMSAT  $ORB04337.M
Orbital Elements  04337.MISC

HR AMSAT ORBITAL ELEMENTS FOR MANNED AND MISCELLANEOUS SATELLITES
FROM WA5QGD FORT WORTH,TX December 2, 2004
SEND SUBSCRIBE/UNSUBSCRIBE TO majordomo@amsat.org ONLY
BID: ORB04337.M
TO ALL RADIO AMATEURS BT

Satellite: HUBBLE
Catalog number: 20580
Epoch time:      04337.72733375
Element set:     219
Inclination:       28.4669 deg
RA of node:       108.6374 deg
Eccentricity:    0.0003768
Arg of perigee:   340.9923 deg
Mean anomaly:      19.0525 deg
Mean motion:   14.99471314 rev/day
Decay rate:      1.298e-05 rev/day^2
Epoch rev:           60072
Checksum:              307

Satellite: UARS
Catalog number: 21701
Epoch time:      04337.48956355
Element set:     323
Inclination:       56.9802 deg
RA of node:       267.3288 deg
Eccentricity:    0.0004775
Arg of perigee:    78.5281 deg
Mean anomaly:     281.6275 deg
Mean motion:   15.03697360 rev/day
Decay rate:      -1.01e-06 rev/day^2
Epoch rev:           72390
Checksum:              305

Satellite: PO-34
Catalog number: 25520
Epoch time:      04336.83191499
Element set:      63
Inclination:       28.4604 deg
RA of node:       191.4213 deg
Eccentricity:    0.0005655
Arg of perigee:   236.4884 deg
Mean anomaly:     123.5168 deg
Mean motion:   15.15948073 rev/day
Decay rate:      1.856e-05 rev/day^2
Epoch rev:           33660
Checksum:              307

Satellite: ISS
Catalog number: 25544
Epoch time:      04337.98782078
Element set:     276
Inclination:       51.6367 deg
RA of node:       184.2355 deg
Eccentricity:    0.0004244
Arg of perigee:    75.5956 deg
Mean anomaly:      75.3203 deg
Mean motion:   15.70939066 rev/day
Decay rate:     1.7811e-04 rev/day^2
Epoch rev:           34483
Checksum:              321

Satellite: OO-38
Catalog number: 26063
Epoch time:      04337.11304852
Element set:     224
Inclination:      100.2247 deg
RA of node:       154.8880 deg
Eccentricity:    0.0036571
Arg of perigee:   249.8612 deg
Mean anomaly:     109.8619 deg
Mean motion:   14.35686606 rev/day
Decay rate:        3.5e-07 rev/day^2
Epoch rev:           25401
Checksum:              291

Satellite: NO-45
Catalog number: 26932
Epoch time:      04337.82131432
Element set:     907
Inclination:       67.0597 deg
RA of node:        13.1738 deg
Eccentricity:    0.0007685
Arg of perigee:   283.3347 deg
Mean anomaly:      76.6911 deg
Mean motion:   14.29459535 rev/day
Decay rate:       2.37e-06 rev/day^2
Epoch rev:           16573
Checksum:              322

/EX



----
Via the keps mailing list at AMSAT.ORG courtesy of AMSAT-NA.
To unsubscribe, send "unsubscribe keps" to Majordomo@amsat.org

--- ViaMAIL!/WC v1.60d
 * Origin: Chowdanet (401-331-0615) telnet://chowdanet.com  (1:323/120)